Regional Weather Roundup
Issued by NWS

Home | Current Version | Previous Version | Graphics & Text | Print | Product List | Glossary On
Versions: 1 2 3 4 5 6 7 8 9 10 11 12 13 14 15 16 17 18 19 20 21 22 23 24 25 26 27 28 29 30 31 32 33 34 35 36 37 38 39 40 41 42 43 44 45 46 47 48 49 50
000
ASUS45 KABQ 010301
RWRNM
WEATHER ROUNDUP FOR NEW MEXICO
NATIONAL WEATHER SERVICE ALBUQUERQUE NM
900 PM MDT THU JUL 31 2014

NOTE: "FAIR" MEANS FEW OR NO CLOUDS BELOW 12,000 FEET AGL WITH NO
       SIGNIFICANT WEATHER OR OBSTRUCTIONS TO VISION.

      THIS PRODUCT IS RELEASED AS TWO VERSIONS.  ONE VERSION NEAR
      THE TOP OF THE HOUR CONTAINING PRELIMINARY DATA FROM ALBUQUERQUE
      AND OTHER STATIONS.  A FINAL VERSION WITH ADDITIONAL DATA IS
      ISSUED ABOUT 10 MINUTES AFTER THE HOUR.

NMZ501-503-504-510>518-010400-
NORTHWEST PLATEAU/NORTHCENTRAL MOUNTAINS

CITY           SKY/WX    TMP DP  RH WIND       PRES   REMARKS
FARMINGTON     CLOUDY    76  51  41 VRB5      30.14R THUNDER
LOS ALAMOS     CLOUDY    57  54  88 CALM      30.36R
SANTA FE       CLOUDY    60  57  89 S8        30.28F
TAOS           CLOUDY    57  52  82 E6        30.35R
ANGEL FIRE     FAIR      55  53  93 S3        30.44S

$$
NMZ402-403-502-505>509-010400-
WESTCENTRAL MOUNTAINS/SOUTHWEST MOUNTAINS

CITY           SKY/WX    TMP DP  RH WIND       PRES   REMARKS
GALLUP         MOCLDY    62  54  74 S17       30.28R

$$
NMZ407-409-411-412-010400-
SOUTHERN DESERTS

CITY           SKY/WX    TMP DP  RH WIND       PRES   REMARKS
LORDSBURG      CLOUDY    82  55  39 MISG      30.10R
DEMING         CLOUDY    77  59  53 W8        30.12R
LAS CRUCES     MOCLDY    81  53  38 SE3       30.11S
HOLLOMAN AFB   MOCLDY    81  63  54 S14       30.08R
T OR C         LGT RAIN  71  60  68 W20       30.15R

$$
NMZ519>523-010400-
CENTRAL VALLEYS/CENTRAL HIGHLANDS

CITY           SKY/WX    TMP DP  RH WIND       PRES   REMARKS
ALBUQUERQUE    CLOUDY    67  56  67 E18       30.25R
DOUBLE EAGLE   CLEAR     63  55  77 N5        30.29R
CLINES CORNERS LGT RAIN  55  52  89 NE23G30   30.37F
BELEN          FAIR      67  58  72 NE12      30.24R
SOCORRO        CLOUDY    64  61  92 N7        30.21R THUNDER

$$
NMZ524>526-539-540-010400-
SOUTHCENTRAL MOUNTAINS

CITY           SKY/WX    TMP DP  RH WIND       PRES   REMARKS
RUIDOSO        NOT AVBL

$$
NMZ527>531-010400-
NORTHEAST HIGHLANDS/NORTHEAST PLAINS

CITY           SKY/WX    TMP DP  RH WIND       PRES   REMARKS
LAS VEGAS      RAIN      54  53  97 E5        30.38F
RATON          CLOUDY    59  57  93 CALM      30.32S
CLAYTON        CLOUDY    68  56  65 NE6       30.25F

$$
NMZ532>537-010400-
EASTCENTRAL PLAINS

CITY           SKY/WX    TMP DP  RH WIND       PRES   REMARKS
TUCUMCARI      CLOUDY    76  52  43 E7        30.18R
CANNON AFB     MOCLDY    71  53  54 SE7       30.20R
CLOVIS AIRPORT NOT AVBL

$$
NMZ028-029-538-010400-
SOUTHEAST PLAINS

CITY           SKY/WX    TMP DP  RH WIND       PRES   REMARKS
ROSWELL        MOCLDY    74  63  68 S7        30.14R
ARTESIA        MOCLDY    73  63  68 CALM      30.14R
CARLSBAD       MOCLDY    76  64  66 S6        30.11R
HOBBS          PTCLDY    75  54  46 E5        30.15R


$$


USA.gov is the U.S. government's official web portal to all federal, state and local government web resources and services.